When you browse on this site, cookies collect data to enhance your experience and personalize the content and advertising you see.
Visit our Privacy Policy to learn more. By continuing to use the site, you agree to this use of cookies and data.
  • In Hungary
  • List of Countries
  • For 7 days
  • Water Temperature
  • Weather Map
  • News
  • Weather Widgets
  • user-avatar
    Login

    Hourly Weather Wiesiolka

    Today, 11 November, Monday

    Time Temperature Precipitation Wind Pressure Humidity
    00:00 +4°C° 0.4 mm 3 mps 731 mmHg 88%
    01:00 +5°C° 0 mm 2 mps 732 mmHg 87%
    02:00 +5°C° 0 mm 2 mps 732 mmHg 87%
    03:00 +4°C° 0 mm 2 mps 732 mmHg 87%
    04:00 +4°C° 0 mm 2 mps 732 mmHg 86%
    05:00 +5°C° 0 mm 1 mps 732 mmHg 87%
    06:00 +4°C° 0 mm 1 mps 732 mmHg 88%
    07:00 +4°C° 0 mm 1 mps 733 mmHg 87%
    08:00 +5°C° 0 mm 1 mps 733 mmHg 83%
    09:00 +5°C° 0 mm 1 mps 733 mmHg 78%
    10:00 +6°C° 0 mm 1 mps 733 mmHg 74%
    11:00 +6°C° 0 mm 2 mps 733 mmHg 71%
    12:00 +7°C° 0 mm 2 mps 732 mmHg 68%
    13:00 +7°C° 0 mm 2 mps 732 mmHg 64%
    14:00 +7°C° 0 mm 2 mps 732 mmHg 68%
    15:00 +6°C° 0 mm 2 mps 731 mmHg 72%
    16:00 +6°C° 0 mm 2 mps 731 mmHg 76%
    17:00 +4°C° 0 mm 3 mps 731 mmHg 78%
    18:00 +4°C° 0 mm 3 mps 731 mmHg 81%
    19:00 +4°C° 0 mm 3 mps 731 mmHg 84%
    20:00 +3°C° 0 mm 3 mps 731 mmHg 85%
    21:00 +3°C° 0 mm 3 mps 730 mmHg 86%
    22:00 +3°C° 0 mm 3 mps 730 mmHg 88%
    23:00 +3°C° 0 mm 3 mps 730 mmHg 86%

    Tomorrow, 12 November, Tuesday

    Time Temperature Precipitation Wind Pressure Humidity
    00:00 +3°C° 0 mm 3 mps 730 mmHg 84%
    01:00 +3°C° 0 mm 3 mps 730 mmHg 82%
    02:00 +3°C° 0 mm 3 mps 729 mmHg 81%
    03:00 +4°C° 0 mm 2 mps 729 mmHg 80%
    04:00 +4°C° 0 mm 2 mps 729 mmHg 78%
    05:00 +4°C° 0 mm 2 mps 729 mmHg 78%
    06:00 +5°C° 0 mm 2 mps 729 mmHg 78%
    07:00 +6°C° 0 mm 1 mps 729 mmHg 78%
    08:00 +7°C° 0 mm 1 mps 729 mmHg 75%
    09:00 +8°C° 0 mm 1 mps 729 mmHg 72%
    10:00 +8°C° 0 mm 0 mps 729 mmHg 69%
    11:00 +9°C° 0 mm 1 mps 729 mmHg 68%
    12:00 +10°C° 0 mm 1 mps 729 mmHg 68%
    13:00 +10°C° 0 mm 1 mps 729 mmHg 67%
    14:00 +10°C° 0.2 mm 1 mps 728 mmHg 73%
    15:00 +8°C° 0.2 mm 2 mps 728 mmHg 78%
    16:00 +8°C° 0.2 mm 2 mps 727 mmHg 84%
    17:00 +8°C° 1.1 mm 2 mps 727 mmHg 86%
    18:00 +8°C° 1.1 mm 2 mps 727 mmHg 87%
    19:00 +8°C° 1.1 mm 2 mps 727 mmHg 89%
    20:00 +8°C° 0.5 mm 2 mps 726 mmHg 88%
    21:00 +8°C° 0.5 mm 2 mps 726 mmHg 88%
    22:00 +9°C° 0.5 mm 1 mps 726 mmHg 87%
    23:00 +8°C° 0.1 mm 2 mps 725 mmHg 86%

    Day after tomorrow, 13 November, Wednesday

    Time Temperature Precipitation Wind Pressure Humidity
    00:00 +8°C° 0.1 mm 2 mps 725 mmHg 84%
    01:00 +8°C° 0.1 mm 2 mps 725 mmHg 83%
    02:00 +8°C° 0 mm 2 mps 725 mmHg 83%
    03:00 +8°C° 0 mm 2 mps 724 mmHg 82%
    04:00 +9°C° 0 mm 2 mps 724 mmHg 81%
    05:00 +9°C° 0.5 mm 2 mps 724 mmHg 85%
    06:00 +9°C° 0.5 mm 2 mps 724 mmHg 89%
    07:00 +9°C° 0.5 mm 2 mps 723 mmHg 93%
    08:00 +9°C° 0.6 mm 2 mps 723 mmHg 94%
    09:00 +9°C° 0.6 mm 2 mps 723 mmHg 95%
    10:00 +10°C° 0.6 mm 1 mps 723 mmHg 96%
    11:00 +11°C° 0.3 mm 1 mps 723 mmHg 92%
    12:00 +12°C° 0.3 mm 1 mps 723 mmHg 88%
    13:00 +12°C° 0.3 mm 2 mps 723 mmHg 84%
    14:00 +12°C° 0 mm 2 mps 723 mmHg 85%
    15:00 +10°C° 0 mm 2 mps 723 mmHg 87%
    16:00 +10°C° 0 mm 2 mps 722 mmHg 89%
    17:00 +10°C° 0 mm 3 mps 722 mmHg 87%
    18:00 +10°C° 0 mm 3 mps 722 mmHg 84%
    19:00 +10°C° 0 mm 4 mps 722 mmHg 82%
    20:00 +11°C° 0 mm 4 mps 722 mmHg 81%
    21:00 +10°C° 0 mm 5 mps 721 mmHg 80%
    22:00 +10°C° 0 mm 6 mps 721 mmHg 78%
    23:00 +10°C° 0 mm 5 mps 722 mmHg 80%

    14 November, Thursday

    Time Temperature Precipitation Wind Pressure Humidity
    00:00 +9°C° 0 mm 5 mps 722 mmHg 81%
    01:00 +9°C° 0 mm 5 mps 723 mmHg 83%
    02:00 +8°C° 0 mm 4 mps 724 mmHg 84%
    03:00 +7°C° 0 mm 4 mps 724 mmHg 85%
    04:00 +5°C° 0 mm 3 mps 725 mmHg 86%
    05:00 +5°C° 0 mm 3 mps 725 mmHg 86%
    06:00 +6°C° 0 mm 2 mps 726 mmHg 86%
    07:00 +6°C° 0 mm 2 mps 727 mmHg 86%
    08:00 +7°C° 0 mm 1 mps 727 mmHg 83%
    09:00 +8°C° 0 mm 1 mps 727 mmHg 80%
    10:00 +9°C° 0 mm 1 mps 728 mmHg 77%
    11:00 +8°C° 0 mm 2 mps 728 mmHg 76%
    12:00 +9°C° 0 mm 2 mps 728 mmHg 75%
    13:00 +9°C° 0 mm 3 mps 728 mmHg 74%
    14:00 +9°C° 0 mm 3 mps 728 mmHg 78%
    15:00 +9°C° 0 mm 2 mps 727 mmHg 82%
    16:00 +8°C° 0 mm 2 mps 727 mmHg 85%
    17:00 +8°C° 0 mm 2 mps 727 mmHg 88%
    18:00 +8°C° 0 mm 2 mps 728 mmHg 90%
    19:00 +8°C° 0 mm 2 mps 728 mmHg 93%
    20:00 +8°C° 0 mm 2 mps 728 mmHg 93%
    21:00 +8°C° 0 mm 2 mps 728 mmHg 92%
    22:00 +8°C° 0 mm 2 mps 728 mmHg 92%
    23:00 +8°C° 0 mm 2 mps 728 mmHg 92%

    15 November, Friday

    Time Temperature Precipitation Wind Pressure Humidity
    00:00 +8°C° 0 mm 2 mps 728 mmHg 91%
    01:00 +8°C° 0 mm 2 mps 728 mmHg 90%
    02:00 +8°C° 0 mm 3 mps 728 mmHg 89%
    03:00 +8°C° 0 mm 3 mps 728 mmHg 89%
    04:00 +8°C° 0 mm 3 mps 727 mmHg 88%
    05:00 +8°C° 0 mm 3 mps 728 mmHg 88%
    06:00 +8°C° 0 mm 3 mps 728 mmHg 88%
    07:00 +8°C° 0 mm 3 mps 728 mmHg 88%
    08:00 +10°C° 0 mm 3 mps 728 mmHg 82%
    09:00 +11°C° 0 mm 3 mps 728 mmHg 76%
    10:00 +13°C° 0 mm 3 mps 728 mmHg 70%
    11:00 +14°C° 0 mm 3 mps 728 mmHg 66%
    12:00 +15°C° 0 mm 4 mps 728 mmHg 63%
    13:00 +17°C° 0 mm 4 mps 728 mmHg 59%
    14:00 +15°C° 0 mm 4 mps 728 mmHg 64%
    15:00 +13°C° 0 mm 3 mps 728 mmHg 70%
    16:00 +12°C° 0 mm 3 mps 728 mmHg 75%
    17:00 +12°C° 0 mm 3 mps 729 mmHg 75%
    18:00 +12°C° 0 mm 3 mps 729 mmHg 74%
    19:00 +11°C° 0 mm 3 mps 729 mmHg 74%
    20:00 +11°C° 0 mm 4 mps 729 mmHg 72%
    21:00 +11°C° 0 mm 4 mps 730 mmHg 71%
    22:00 +10°C° 0 mm 4 mps 730 mmHg 69%
    23:00 +10°C° 0 mm 4 mps 730 mmHg 69%

    16 November, Saturday

    Time Temperature Precipitation Wind Pressure Humidity
    00:00 +10°C° 0 mm 3 mps 730 mmHg 70%
    01:00 +10°C° 0 mm 3 mps 730 mmHg 70%
    02:00 +10°C° 0 mm 3 mps 730 mmHg 71%
    03:00 +10°C° 0 mm 3 mps 730 mmHg 72%
    04:00 +10°C° 0 mm 3 mps 730 mmHg 72%
    05:00 +10°C° 0 mm 4 mps 730 mmHg 73%
    06:00 +10°C° 0 mm 4 mps 730 mmHg 73%
    07:00 +10°C° 0 mm 4 mps 731 mmHg 74%
    08:00 +11°C° 0 mm 4 mps 731 mmHg 71%
    09:00 +12°C° 0 mm 4 mps 731 mmHg 69%
    10:00 +13°C° 0 mm 4 mps 732 mmHg 67%
    11:00 +14°C° 0 mm 4 mps 732 mmHg 64%
    12:00 +14°C° 0 mm 4 mps 732 mmHg 60%
    13:00 +15°C° 0 mm 4 mps 732 mmHg 57%
    14:00 +14°C° 0 mm 4 mps 732 mmHg 62%
    15:00 +13°C° 0 mm 3 mps 732 mmHg 67%
    16:00 +13°C° 0 mm 2 mps 732 mmHg 71%
    17:00 +13°C° 0 mm 1 mps 733 mmHg 73%
    18:00 +13°C° 0 mm 1 mps 733 mmHg 76%
    19:00 +12°C° 0 mm 1 mps 734 mmHg 78%
    20:00 +12°C° 0 mm 1 mps 734 mmHg 79%
    21:00 +12°C° 0 mm 1 mps 734 mmHg 80%
    22:00 +12°C° 0 mm 1 mps 735 mmHg 80%
    23:00 +10°C° 0 mm 2 mps 735 mmHg 82%
    Show more